KZ-11 R/B, 68205

Orbit data source: Space-Track

KZ-11 R/B, 68205 is space debris in SSO originally from a Chinese launch on Mon, 16 Mar 2026 UTC launched from the Jiuquan Satellite Launch Center, China (JSC). Debris objects in space refer to the collection of defunct objects orbiting the Earth. Examples of debris include non-operational satellites, rocket bodies, and fragments generated from explosions, collisions, or faulty payload assembly.

Loading next visibility...
Identifier
68205, 2026-052H
Orbit
SSO
Country
Flag of CNCN / PRC
Related business
None
Manufacturer
Unknown
Mission
Spacecraft
Bus & Motor
Unknown
Mass
Unknown
Launch date (UTC)
2026-03-16 (3 months ago)
Launch vehicle
Unknown
Launch site
Jiuquan Satellite Launch Center, China (JSC)
Object type
Payload
Rocket body
Debris
Shape & HBR
Unknown shape, 2.5 m
Radar Cross Section
Large (>1 m²)

Expand to show TLE details & history
Last TLE update: 1 day ago

TLE from 1 day ago
0 KZ-11 R/B
1 68205U 26052H   26170.72606730  .00035620  16336-5  44525-3 0  9996
2 68205  97.3299 238.1956 0530051  61.8987 303.4756 14.73940559 14043
Epoch: 2026-06-19T17:25Z
TLE epoch observation values (Epoch: 2026-06-19T17:25:32.214Z)
Latitude
-0.00001°
Longitude
68.86047°
Altitude
460.415 km
Speed
7.74 km/s
True Right ascension
15h 52m 46s
True Declination
0° 00' 00"
Sunlit
Object was in full shadow at epoch
Visualization orbit readout
Latitude
Unknown
Longitude
Unknown
Altitude
Unknown
Speed
Unknown
Apparent Right ascension
Unknown
Apparent Declination
Unknown
Sunlit
N/A
Visualization observer readout
Local Sidereal Time
10:18:42
Azimuth
Unknown
Elevation
Unknown
Doppler factor
Unknown
Orbital elements
Apogee altitude
1,017.818 km
Perigee altitude
273.238 km
Semi-major axis
7,023.665 km
Eccentricity
0.05301
Inclination
97.3299°
RAAN
238.1956°
Arg. of periapsis
61.8987°
True anomaly
298.22472°
Mean anomaly
303.4756°
Eccentric anomaly
300.86884°
Mean motion
3.68721 °/min
Orbital period
97.63 mins
BSTAR
0.00044525
Loading maneuver chart data...
Computing Atmospheric mass density...
Loading historical data...
Loading historical data...
Loading historical data...
Loading historical data...
Loading historical data...
Loading historical data...
Loading historical data...

Documentation

Showing up to 5 results
|